Location: Dillon
(41.1766°N, 107.0923°W)
Time: 11:16:17
(UTC+00:00)

RS-44 - Pass Details

Date: 29 June 2022
Orbit: 1175 x 1510 km, 82.5° (Epoch: 11 August)

Event Time Altitude Azimuth Distance (km) Brightness Sun altitude
Rises 05:37:51 0° 237° (WSW) 4,329 ? -22.0°
Reaches altitude 10° 05:41:34 10° 254° (WSW) 3,421 ? -22.3°
Maximum altitude 05:47:13 20° 298° (WNW) 2,811 ? -22.7°
Drops below altitude 10° 05:53:09 10° 342° (NNW) 3,593 ? -23.1°
Sets 05:57:14 0° 359° (N) 4,617 ? -23.3°
